Terminal Aerodrome Forecast
Issued by NWS St Louis, MO

Home | Current Version | Previous Version | Text Only | Print | Product List | Glossary On
Versions: 1 2 3 4 5 6 7 8 9 10 11 12 13 14 15 16 17 18 19 20 21
106
FTUS43 KLSX 082328
TAFCOU
TAF
KCOU 082328Z 0900/0924 32019G30KT P6SM OVC035
     FM090500 32014G24KT P6SM OVC030
     FM091500 32014G22KT P6SM SCT025=

USA.gov is the U.S. government's official web portal to all federal, state and local government web resources and services.